Weather past 2 weeks in Port-aux-Francais, Kerguelen Islands

Now
26 °F

Chilly.


Feels Like: 11 °F
Forecast: 26 / 31 °F
Wind: 22 mph from West

Location: Port-Aux-Francais Iles Kerguelen

Current Time: Aug 22, 2014 at 6:58:14 AM

Latest Report: Aug 22, 2014 at 6:00 AM


Visibility: N/A

Pressure: 29.41 "Hg

Humidity: 89%

Dew point: 23 °F

Location of Port-aux-FrancaisLocation

Historic Weather in Port-aux-Francais — Graph

°F

Port-aux-Francais temperature yesterday

Maximum temperature yesterday: 27 °F (at 12:00 AM)
Minimum temperature yesterday: 21 °F (at 9:00 AM)
Average temperature yesterday: 24 °F

Past Weeks' High & Low Weather Summary

 TemperatureHumidityPressure
High43 °F (Aug 15, 5:00 PM)100% (Aug 9, 10:00 PM)30.05 "Hg (Aug 9, 10:00 PM)
Low18 °F (Aug 11, 8:00 AM)55% (Aug 16, 2:00 PM)28.91 "Hg (Aug 8, 4:00 PM)
Average31 °F84%29.36 "Hg
* Reported Aug 7 5:00 AM — Aug 22 5:00 AM, Port-aux-Francais, Weather by CustomWeather, © 2014

Note: Actual official high and low records may vary slightly from our data, if they occured in-between our weather recording intervals... More about our weather records

Advertising

Port-aux-Francais weather history for previous 24 hours

 ConditionsComfort  
Time TempWeatherWind HumidityBarometerVisibility
5:00 AM
Aug 22
25 °FLight snow. Overcast.17 mph96%29.44 "Hg2 mi
4:00 AM25 °FChilly.24 mph95%29.47 "HgN/A
3:00 AM26 °FChilly.32 mph87%29.47 "HgN/A
2:00 AM26 °FChilly.30 mph89%29.50 "HgN/A
1:00 AM24 °FCold.23 mph92%29.50 "HgN/A
12:00 AM24 °FCold.29 mph83%29.50 "HgN/A
11:00 PM
Aug 21
24 °FCold.36 mph92%29.50 "HgN/A
10:00 PM23 °FCold.25 mph92%29.50 "HgN/A
9:00 PM24 °FCold.29 mph93%29.50 "HgN/A
8:00 PM23 °FCold.29 mph91%29.47 "HgN/A
7:00 PM24 °FCold.29 mph88%29.47 "HgN/A
6:00 PM23 °FCold.32 mph89%29.47 "HgN/A
5:00 PM25 °FPartly sunny.29 mph94%29.44 "Hg5 mi
4:00 PM25 °FChilly.28 mph95%29.44 "HgN/A
3:00 PM25 °FChilly.36 mph92%29.41 "HgN/A
2:00 PM25 °FSnow flurries. Low clouds.39 mph94%29.38 "Hg0 mi
1:00 PM26 °FChilly.32 mph71%29.38 "HgN/A
12:00 PM25 °FChilly.35 mph74%29.38 "HgN/A
11:00 AM24 °FPassing clouds.31 mph63%29.38 "Hg9 mi
10:00 AM22 °FCold.33 mph79%29.35 "HgN/A
9:00 AM21 °FCold.36 mph86%29.35 "HgN/A
8:00 AM22 °FPassing clouds.37 mph92%29.32 "Hg5 mi
7:00 AM23 °FCold.31 mph89%29.32 "HgN/A
6:00 AM23 °FCold.29 mph93%29.29 "HgN/A
Weather by CustomWeather, © 2014

See weather overviewHow to use our weather pages